Temp
0 0 0 -0 -0 -0 -1 -1 -1 -2 -2 -2 -2 -3 -3 -3 -3 -3 -4 -4 -4 -4 -5 -5 -5 -5 -5 -5 -5 -5 -5 -5 -5 -5 -5 -5 -5 -5 -5 -5 -5 -5 -5 -6 -6 -6 -6 -6 -6 -6 -6 -6 -6 -6 -6 -7 -7 -7 -7 -7 -7 -7 -7 -8 -8 -8 -8 -8 -8
0 0 0 -0 -0 -1 -1 -1 -1 -2 -2 -2 -2 -3 -3 -3 -3 -3 -4 -4 -4 -4 -5 -5 -5 -5 -5 -5 -5 -5 -5 -5 -5 -5 -5 -5 -5 -5 -6 -6 -6 -6 -6 -6 -6 -6 -6 -6 -6 -6 -6 -6 -6 -7 -7 -7 -7 -7 -7 -7 -7 -7 -7 -8 -8 -8 -8 -8 -8
0 0 -0 -0 -1 -1 -1 -1 -1 -2 -2 -2 -2 -3 -3 -3 -3 -4 -4 -4 -4 -5 -5 -5 -5 -5 -5 -5 -5 -5 -5 -5 -5 -6 -6 -6 -6 -6 -6 -6 -6 -6 -6 -6 -6 -6 -6 -6 -6 -6 -6 -6 -7 -7 -7 -7 -7 -7 -7 -7 -7 -7 -8 -8 -8 -8 -8 -8 -8
0 0 -0 -0 -0 -1 -1 -1 -1 -1 -2 -2 -3 -3 -3 -3 -4 -4 -4 -4 -5 -5 -5 -5 -5 -5 -5 -5 -5 -5 -5 -6 -6 -6 -6 -6 -6 -6 -6 -6 -6 -6 -6 -6 -6 -6 -6 -6 -6 -6 -6 -6 -6 -6 -7 -7 -7 -7 -7 -7 -7 -8 -8 -8 -8 -8 -8 -8 -9
0 0 -0 -0 -0 -0 -0 -1 -1 -2 -2 -3 -3 -3 -3 -4 -4 -4 -4 -4 -5 -5 -5 -5 -5 -5 -5 -5 -5 -5 -6 -6 -6 -6 -6 -6 -6 -6 -6 -6 -6 -6 -6 -6 -6 -6 -6 -7 -7 -7 -7 -7 -7 -7 -7 -7 -7 -7 -7 -7 -7 -8 -8 -8 -8 -8 -8 -8 -8
0 0 0 0 -0 -0 -1 -1 -1 -2 -2 -3 -3 -3 -3 -3 -4 -4 -4 -4 -4 -4 -5 -5 -5 -5 -5 -5 -5 -5 -6 -6 -6 -6 -6 -6 -6 -6 -6 -6 -6 -6 -6 -6 -7 -7 -7 -7 -7 -7 -7 -7 -7 -7 -7 -7 -7 -7 -7 -7 -7 -8 -8 -8 -8 -8 -8 -8 -8
1 0 0 -0 -0 -0 -1 -1 -2 -2 -3 -3 -3 -3 -3 -3 -3 -4 -4 -4 -4 -5 -5 -5 -5 -5 -5 -5 -6 -6 -6 -6 -6 -6 -6 -6 -6 -6 -6 -6 -6 -6 -6 -7 -7 -7 -7 -7 -7 -7 -7 -7 -7 -7 -7 -7 -7 -7 -7 -7 -7 -8 -8 -8 -8 -8 -8 -8 -8
1 0 0 -0 -0 -1 -1 -1 -2 -2 -3 -3 -3 -3 -3 -3 -3 -4 -4 -4 -4 -5 -5 -5 -5 -5 -5 -5 -6 -6 -6 -6 -6 -6 -6 -6 -6 -6 -6 -6 -6 -6 -6 -7 -7 -7 -7 -7 -7 -7 -7 -7 -7 -7 -7 -7 -7 -7 -7 -7 -7 -8 -8 -8 -8 -8 -8 -8 -8
0 0 -0 -0 -1 -1 -1 -2 -2 -2 -3 -3 -3 -3 -3 -3 -4 -4 -4 -4 -4 -4 -5 -5 -5 -5 -5 -6 -6 -6 -6 -6 -6 -6 -6 -6 -6 -6 -6 -6 -6 -6 -7 -7 -7 -7 -7 -7 -7 -7 -7 -7 -7 -7 -7 -7 -7 -7 -7 -7 -8 -8 -8 -8 -8 -8 -8 -8 -8
0 0 -0 -1 -1 -1 -1 -2 -2 -2 -3 -3 -3 -3 -3 -3 -4 -4 -4 -4 -4 -4 -5 -5 -5 -5 -5 -6 -6 -6 -6 -6 -6 -6 -6 -6 -6 -6 -6 -6 -6 -6 -6 -7 -7 -7 -7 -7 -7 -7 -7 -7 -7 -7 -7 -7 -7 -7 -7 -8 -8 -8 -7 -7 -7 -8 -8 -8 -8
1 0 -0 -0 -1 -1 -1 -2 -2 -3 -3 -3 -3 -3 -3 -3 -3 -3 -4 -4 -4 -5 -5 -5 -5 -5 -5 -5 -6 -6 -6 -6 -6 -6 -6 -6 -6 -6 -6 -6 -6 -6 -6 -6 -7 -7 -7 -7 -7 -7 -7 -7 -7 -7 -7 -7 -7 -7 -7 -7 -7 -7 -7 -7 -7 -8 -8 -8 -8
1 0 -0 -0 -1 -1 -2 -2 -2 -3 -3 -3 -3 -3 -3 -3 -3 -3 -4 -4 -5 -5 -5 -5 -5 -5 -5 -5 -5 -6 -6 -6 -6 -6 -6 -6 -6 -6 -6 -6 -6 -6 -6 -6 -6 -7 -7 -7 -7 -7 -7 -7 -7 -7 -7 -7 -7 -7 -7 -7 -7 -7 -7 -7 -7 -7 -8 -8 -8
1 0 -0 -1 -1 -1 -2 -2 -2 -3 -3 -3 -3 -3 -3 -3 -3 -3 -4 -4 -4 -4 -5 -5 -5 -5 -5 -5 -5 -5 -6 -6 -6 -6 -6 -6 -6 -6 -6 -6 -6 -6 -6 -6 -6 -6 -7 -7 -7 -7 -7 -7 -7 -7 -7 -7 -7 -7 -7 -7 -7 -7 -7 -7 -7 -7 -8 -8 -8
0 -0 -1 -1 -1 -2 -2 -2 -2 -3 -3 -3 -3 -3 -3 -3 -3 -4 -4 -4 -4 -4 -4 -5 -5 -5 -5 -5 -5 -5 -6 -6 -6 -6 -6 -6 -6 -6 -6 -6 -6 -6 -6 -6 -6 -6 -6 -6 -6 -6 -7 -7 -7 -7 -7 -7 -7 -7 -7 -7 -7 -7 -7 -6 -7 -7 -7 -8 -8
-0 -0 -1 -1 -2 -2 -2 -2 -2 -2 -3 -3 -3 -3 -3 -3 -3 -4 -4 -4 -4 -4 -5 -5 -5 -5 -5 -5 -5 -5 -5 -6 -6 -6 -6 -6 -5 -5 -6 -6 -6 -6 -6 -6 -6 -6 -6 -6 -6 -6 -6 -6 -6 -6 -6 -6 -7 -7 -7 -7 -7 -7 -6 -6 -6 -7 -7 -7 -7
-0 -1 -1 -1 -2 -2 -2 -2 -2 -2 -2 -3 -2 -3 -3 -3 -3 -4 -4 -4 -4 -4 -5 -5 -5 -5 -5 -5 -5 -5 -5 -5 -5 -6 -6 -5 -5 -5 -5 -5 -5 -5 -5 -6 -6 -6 -6 -6 -6 -6 -6 -6 -6 -6 -6 -6 -6 -6 -6 -6 -6 -6 -6 -6 -6 -7 -7 -7 -7
-0 -1 -1 -2 -2 -2 -2 -2 -2 -2 -2 -2 -2 -3 -3 -3 -3 -4 -4 -4 -4 -4 -4 -5 -5 -5 -5 -5 -5 -5 -5 -5 -5 -5 -5 -5 -5 -5 -5 -5 -5 -5 -5 -6 -6 -6 -6 -6 -6 -6 -6 -6 -6 -6 -6 -6 -5 -5 -5 -5 -5 -6 -6 -6 -6 -7 -7 -7 -7
-1 -1 -1 -1 -2 -1 -1 -1 -2 -2 -2 -2 -3 -3 -3 -3 -3 -3 -4 -4 -4 -4 -4 -4 -5 -5 -5 -5 -5 -5 -5 -5 -5 -5 -5 -5 -5 -5 -5 -5 -5 -5 -5 -5 -5 -6 -6 -6 -6 -6 -6 -6 -6 -6 -5 -5 -5 -5 -5 -5 -5 -5 -6 -6 -6 -6 -7 -7 -7
-1 -1 -1 -1 -1 -1 -1 -1 -2 -2 -2 -2 -3 -3 -3 -3 -3 -3 -4 -4 -4 -4 -4 -4 -4 -5 -5 -5 -5 -5 -5 -5 -5 -5 -5 -5 -5 -5 -5 -5 -5 -5 -5 -5 -5 -5 -5 -6 -6 -6 -6 -6 -5 -5 -5 -5 -5 -5 -5 -5 -5 -5 -5 -5 -6 -6 -6 -7 -7
-0 -1 -1 -1 -1 -1 -1 -1 -1 -2 -2 -2 -3 -3 -3 -3 -3 -3 -4 -4 -4 -4 -4 -4 -5 -5 -5 -5 -5 -5 -5 -5 -5 -5 -5 -5 -5 -5 -5 -5 -5 -5 -5 -5 -5 -5 -5 -5 -6 -6 -6 -5 -5 -5 -4 -4 -4 -4 -4 -5 -5 -5 -5 -5 -5 -5 -6 -6 -6
-0 -0 -0 -0 -0 -0 -1 -1 -1 -2 -2 -3 -3 -3 -3 -3 -3 -3 -3 -3 -4 -4 -4 -4 -4 -5 -5 -5 -5 -5 -5 -5 -5 -5 -5 -5 -5 -5 -5 -5 -5 -5 -5 -5 -5 -5 -5 -5 -6 -5 -5 -5 -5 -4 -4 -4 -4 -4 -4 -5 -5 -5 -5 -4 -5 -5 -5 -5 -6
0 0 0 0 -0 -0 -1 -1 -2 -2 -3 -3 -3 -3 -3 -3 -3 -3 -3 -4 -4 -4 -4 -4 -4 -4 -5 -5 -5 -5 -5 -5 -5 -5 -5 -5 -5 -5 -5 -5 -5 -5 -5 -5 -5 -5 -5 -5 -5 -5 -5 -4 -4 -4 -4 -4 -4 -4 -4 -4 -4 -4 -4 -5 -5 -5 -5 -5 -5
0 0 0 0 -0 -0 -1 -1 -2 -2 -3 -3 -3 -3 -3 -3 -3 -3 -3 -4 -4 -4 -4 -4 -4 -4 -5 -5 -5 -5 -5 -5 -5 -5 -5 -5 -5 -5 -5 -5 -5 -5 -5 -5 -5 -5 -6 -6 -5 -5 -4 -4 -4 -4 -4 -4 -4 -4 -4 -4 -4 -4 -4 -5 -5 -5 -5 -5 -5
0 0 0 -0 -0 -1 -1 -2 -2 -3 -3 -3 -3 -3 -3 -3 -3 -3 -4 -4 -4 -4 -4 -4 -4 -4 -5 -5 -5 -5 -5 -5 -5 -5 -5 -5 -5 -5 -5 -5 -5 -5 -5 -5 -5 -6 -6 -5 -5 -4 -4 -4 -4 -3 -3 -3 -3 -3 -3 -4 -4 -4 -4 -4 -5 -5 -5 -5 -5
0 0 -0 -0 -1 -1 -1 -2 -2 -3 -3 -3 -3 -3 -3 -3 -3 -3 -4 -4 -4 -4 -4 -4 -4 -4 -5 -5 -5 -5 -5 -5 -5 -5 -5 -5 -5 -5 -5 -5 -5 -5 -5 -5 -5 -6 -5 -5 -4 -4 -3 -3 -3 -3 -3 -3 -3 -3 -3 -3 -4 -4 -4 -4 -5 -5 -5 -5 -5
-0 -0 -0 -1 -1 -1 -1 -2 -2 -3 -3 -3 -3 -3 -3 -3 -3 -3 -4 -4 -4 -4 -4 -4 -4 -4 -4 -5 -5 -5 -5 -5 -5 -5 -5 -5 -5 -5 -5 -5 -5 -5 -5 -5 -5 -5 -5 -4 -3 -3 -3 -3 -3 -3 -2 -3 -3 -3 -3 -4 -4 -4 -4 -5 -5 -5 -5 -5 -5
-1 -1 -1 -1 -1 -1 -2 -2 -2 -3 -3 -3 -3 -3 -3 -3 -3 -4 -4 -4 -4 -4 -4 -4 -4 -4 -4 -5 -5 -5 -5 -5 -5 -5 -5 -5 -5 -5 -5 -5 -5 -5 -5 -5 -5 -5 -4 -4 -3 -3 -2 -2 -2 -2 -2 -2 -3 -3 -3 -4 -4 -4 -5 -5 -5 -5 -6 -6 -6
-1 -1 -1 -1 -1 -1 -2 -2 -2 -3 -3 -3 -3 -3 -3 -3 -4 -4 -4 -4 -4 -4 -4 -4 -4 -4 -4 -5 -5 -5 -5 -5 -5 -5 -5 -5 -5 -5 -5 -5 -5 -5 -5 -5 -5 -5 -4 -4 -3 -3 -2 -2 -2 -2 -2 -2 -3 -3 -3 -4 -4 -4 -5 -5 -5 -6 -6 -6 -6
-1 -1 -1 -1 -1 -1 -2 -2 -2 -3 -3 -3 -3 -3 -3 -3 -4 -4 -4 -4 -4 -4 -4 -4 -4 -4 -4 -5 -5 -5 -5 -5 -5 -5 -5 -5 -5 -5 -5 -5 -5 -5 -5 -5 -5 -5 -4 -3 -3 -2 -2 -2 -2 -2 -2 -3 -3 -3 -4 -4 -4 -4 -5 -5 -5 -6 -6 -6 -6
-1 -1 -1 -1 -1 -2 -2 -2 -2 -2 -2 -3 -3 -3 -3 -4 -4 -4 -4 -4 -4 -3 -3 -3 -4 -4 -4 -4 -5 -5 -5 -5 -5 -5 -5 -5 -5 -5 -5 -5 -5 -5 -5 -5 -5 -4 -4 -3 -3 -2 -2 -2 -2 -2 -2 -3 -3 -3 -4 -4 -4 -4 -5 -5 -5 -6 -6 -6 -6
-1 -1 -2 -2 -2 -2 -2 -2 -2 -2 -3 -3 -3 -3 -3 -4 -4 -3 -3 -3 -3 -3 -3 -4 -4 -4 -4 -4 -5 -5 -5 -5 -5 -5 -5 -5 -5 -5 -5 -5 -5 -5 -5 -5 -5 -4 -4 -3 -3 -2 -2 -2 -2 -2 -3 -3 -3 -4 -4 -4 -4 -4 -5 -5 -5 -6 -6 -6 -6
-2 -2 -2 -2 -2 -2 -2 -2 -2 -3 -3 -3 -3 -3 -3 -3 -3 -3 -3 -3 -3 -3 -4 -4 -4 -4 -4 -4 -4 -5 -5 -5 -5 -5 -5 -5 -5 -5 -5 -5 -5 -5 -5 -5 -5 -4 -3 -3 -3 -2 -2 -2 -2 -2 -3 -3 -3 -4 -4 -4 -4 -4 -5 -5 -5 -6 -6 -6 -6
-2 -2 -2 -2 -2 -2 -2 -2 -3 -3 -3 -3 -3 -3 -3 -3 -3 -3 -3 -3 -3 -4 -4 -4 -4 -4 -4 -4 -4 -4 -4 -4 -5 -5 -5 -5 -5 -5 -5 -5 -5 -5 -5 -5 -5 -4 -3 -3 -3 -2 -2 -2 -2 -2 -3 -3 -4 -4 -4 -4 -4 -4 -4 -5 -5 -6 -6 -6 -6
-2 -2 -2 -2 -2 -2 -2 -3 -3 -3 -3 -3 -3 -3 -3 -3 -3 -3 -3 -3 -3 -3 -4 -4 -4 -4 -4 -4 -4 -4 -4 -4 -5 -5 -5 -5 -5 -5 -5 -5 -5 -5 -5 -5 -4 -4 -3 -3 -3 -2 -2 -2 -2 -3 -3 -4 -4 -4 -4 -4 -4 -4 -4 -5 -5 -6 -6 -6 -6
-3 -3 -2 -2 -2 -3 -3 -3 -3 -3 -4 -3 -3 -3 -3 -3 -3 -3 -3 -3 -3 -4 -4 -4 -4 -4 -4 -4 -4 -4 -4 -4 -5 -5 -5 -5 -5 -5 -5 -5 -5 -5 -5 -5 -5 -4 -4 -3 -3 -2 -2 -2 -2 -3 -3 -4 -4 -4 -4 -4 -4 -4 -4 -5 -5 -6 -6 -6 -6
-3 -3 -2 -2 -3 -3 -3 -4 -4 -4 -4 -4 -3 -3 -3 -3 -3 -3 -3 -3 -3 -4 -4 -4 -4 -4 -4 -4 -4 -4 -4 -4 -5 -5 -5 -5 -5 -5 -5 -5 -5 -5 -5 -5 -5 -4 -4 -3 -3 -2 -2 -2 -2 -3 -4 -4 -4 -4 -4 -4 -4 -4 -5 -5 -5 -6 -6 -6 -6
-3 -2 -2 -2 -3 -3 -3 -4 -4 -4 -4 -3 -3 -2 -2 -3 -3 -3 -3 -3 -4 -4 -4 -4 -4 -4 -4 -4 -4 -4 -4 -4 -5 -5 -5 -5 -5 -5 -5 -5 -5 -5 -5 -5 -5 -4 -4 -3 -3 -2 -2 -2 -2 -3 -4 -4 -4 -4 -4 -4 -4 -4 -5 -5 -5 -5 -5 -5 -5
-2 -2 -2 -3 -3 -3 -4 -4 -4 -4 -3 -3 -2 -2 -2 -2 -3 -3 -3 -3 -3 -4 -3 -3 -4 -4 -4 -4 -4 -4 -4 -5 -5 -5 -5 -5 -5 -5 -5 -5 -5 -5 -5 -5 -5 -4 -4 -4 -3 -3 -2 -2 -2 -3 -3 -4 -4 -4 -4 -4 -4 -4 -5 -5 -5 -5 -5 -5 -5
-2 -2 -2 -3 -3 -3 -4 -4 -4 -3 -3 -2 -2 -2 -2 -2 -2 -2 -3 -3 -3 -3 -3 -3 -3 -3 -4 -4 -4 -4 -4 -5 -5 -5 -5 -5 -5 -5 -5 -5 -5 -5 -5 -5 -5 -5 -4 -4 -3 -3 -2 -2 -2 -2 -3 -4 -4 -4 -4 -4 -4 -4 -5 -5 -5 -5 -5 -5 -5
-2 -2 -2 -3 -3 -3 -4 -4 -3 -3 -2 -2 -2 -2 -2 -2 -2 -2 -2 -3 -3 -3 -3 -3 -3 -3 -4 -4 -4 -4 -5 -5 -5 -5 -5 -5 -5 -5 -5 -5 -5 -5 -5 -5 -5 -5 -4 -4 -3 -3 -2 -2 -2 -2 -3 -3 -3 -4 -4 -4 -4 -4 -5 -5 -5 -5 -5 -5 -5
-3 -3 -3 -3 -3 -3 -3 -3 -3 -2 -2 -2 -2 -1 -1 -1 -2 -2 -3 -3 -3 -3 -3 -3 -4 -4 -4 -4 -4 -5 -5 -5 -5 -5 -5 -5 -5 -5 -5 -5 -5 -5 -5 -5 -5 -5 -4 -4 -3 -3 -2 -2 -2 -2 -2 -3 -3 -3 -4 -4 -4 -4 -5 -5 -5 -5 -5 -5 -5
Height
839 840 840 840 841 841 841 841 841 841 841 841 841 842 842 842 842 841 842 842 842 841 841 841 841 841 841 841 840 840 839 839 838 838 837 836 836 835 835 834 834 833 832 832 831 830 829 829 828 827 826 824 824 822 821 820 819 818 817 816 814 813 812 810 809 807 806 806 805
838 838 839 839 839 839 839 839 839 839 839 839 840 840 840 840 840 840 840 840 840 840 840 840 839 839 839 839 839 839 838 837 837 836 835 835 834 834 833 833 832 831 831 830 829 829 828 827 826 825 824 823 822 820 819 818 818 816 815 814 812 811 810 808 807 805 804 804 803
836 836 837 837 837 837 837 837 837 838 838 838 839 839 839 839 838 838 838 838 839 839 839 838 838 838 838 838 837 837 836 836 835 834 834 833 832 832 831 831 830 829 829 828 827 827 826 825 824 823 822 821 820 819 817 816 815 814 813 811 810 809 808 806 805 804 803 802 801
834 834 835 835 835 835 835 835 836 836 836 837 837 837 837 837 837 837 837 837 837 837 837 837 837 836 836 836 835 835 835 834 834 833 832 831 831 830 829 829 828 828 827 826 825 825 824 823 823 821 820 819 818 816 815 814 813 812 811 809 808 807 806 804 803 802 801 800 799
832 832 832 833 833 833 834 834 834 834 835 835 835 835 835 835 835 835 835 835 835 835 835 835 835 835 834 834 834 833 833 833 832 831 830 829 829 829 828 827 826 826 825 824 824 823 822 821 820 819 818 817 816 814 813 812 811 810 809 807 806 805 804 802 801 800 799 798 797
829 830 830 831 831 832 832 832 833 833 833 834 834 834 833 833 834 834 834 834 834 834 834 834 834 833 833 833 832 832 831 831 830 830 829 828 827 827 826 825 824 824 823 822 822 821 820 819 819 817 816 815 814 813 812 811 809 808 807 805 804 803 802 800 799 798 797 796 794
828 828 829 829 830 830 830 831 831 831 832 832 832 831 831 832 832 832 832 832 832 832 832 832 832 832 831 831 831 830 830 829 829 828 827 827 826 825 824 823 823 822 821 820 820 819 818 818 817 815 814 813 812 811 810 809 808 806 805 803 802 800 799 798 797 796 795 794 792
826 827 827 828 828 828 829 829 829 829 830 830 829 829 830 830 830 830 830 830 830 831 831 831 830 830 830 829 829 829 828 828 827 826 826 825 824 823 822 821 821 820 819 819 818 817 816 816 815 814 812 811 810 809 808 807 806 804 803 801 799 798 797 796 795 794 793 792 790
824 824 825 826 826 826 827 827 828 828 828 828 828 828 828 829 829 829 829 829 829 829 829 829 829 829 828 828 828 827 827 826 825 825 824 823 822 821 820 819 819 818 817 817 816 815 814 814 813 812 811 809 808 807 806 805 804 802 801 799 797 795 794 793 793 792 791 789 788
822 822 823 824 824 824 825 825 826 826 826 826 826 826 827 827 827 827 827 827 827 827 827 827 827 827 827 826 826 825 825 824 824 823 822 821 820 819 819 818 817 816 815 815 814 814 813 812 811 809 809 808 807 805 804 803 802 800 798 797 795 793 791 790 789 789 788 787 786
819 820 821 822 822 823 824 824 824 824 824 824 824 824 825 825 825 825 825 826 826 825 825 825 826 825 825 824 824 824 824 823 822 821 820 819 819 818 817 816 815 814 814 813 812 812 811 810 809 808 807 806 805 803 802 800 799 798 796 794 793 791 789 787 786 786 786 785 784
818 819 819 820 821 821 822 822 822 822 822 822 822 823 823 823 824 824 824 824 824 824 824 824 824 824 823 823 823 822 822 821 821 820 819 818 817 816 815 814 814 813 812 811 811 810 809 808 807 806 804 804 803 801 800 798 797 795 794 792 790 789 787 785 784 783 783 782 781
816 817 818 819 819 820 820 820 820 820 820 820 820 821 821 822 822 822 822 822 822 822 822 822 822 822 822 821 821 821 820 820 819 818 817 816 815 814 814 813 812 811 811 810 809 809 808 806 805 804 803 801 800 799 798 796 795 793 791 789 788 786 784 782 781 781 781 780 779
814 815 816 817 817 818 818 818 818 818 819 819 819 819 819 820 820 821 821 820 820 820 821 821 821 820 820 820 819 819 819 818 817 816 815 815 814 813 812 811 811 810 809 808 808 807 806 805 804 803 801 800 798 797 795 794 793 791 789 787 785 783 782 780 779 779 778 778 776
812 813 814 814 815 815 816 816 816 816 816 817 817 817 818 818 819 819 819 819 819 819 819 819 819 819 819 818 818 818 817 816 815 815 814 813 812 811 811 810 809 808 808 807 806 805 804 803 802 801 799 798 796 794 793 792 790 788 787 785 783 781 779 778 777 776 776 774 773
810 811 812 812 813 813 813 813 814 814 814 814 815 816 816 816 817 817 817 817 817 817 817 817 817 817 817 817 816 816 815 814 814 813 812 811 810 810 809 808 807 807 806 805 804 803 802 801 800 799 798 796 794 792 790 789 787 785 784 782 780 779 778 776 775 774 773 771 770
808 808 809 810 810 810 811 811 811 812 812 813 813 814 814 814 815 815 815 815 815 815 815 815 815 815 815 815 814 814 814 813 812 811 811 810 809 808 807 806 806 805 804 803 802 801 800 799 798 797 796 794 792 790 788 786 784 783 781 779 778 776 775 774 773 771 769 768 768
805 806 807 807 808 808 808 809 809 809 810 811 811 812 812 813 813 813 813 814 814 814 814 814 814 814 813 813 813 813 812 811 810 810 809 808 807 807 806 805 804 803 802 801 800 799 798 797 796 795 794 792 790 789 786 784 782 780 778 777 775 774 773 772 770 768 767 766 765
802 803 804 804 805 805 806 806 807 808 808 809 810 810 811 811 811 811 811 812 812 812 812 812 812 812 812 811 811 811 810 810 809 808 807 807 806 805 804 803 802 801 800 799 799 797 796 795 794 793 792 790 788 786 784 782 780 778 776 775 774 773 772 770 768 766 765 764 763
799 800 801 801 802 803 804 804 805 806 806 807 808 809 809 809 809 809 809 810 810 810 810 810 810 810 810 809 809 809 809 808 807 807 806 805 804 803 802 801 800 799 799 798 797 796 794 793 792 791 789 788 786 784 781 779 777 775 774 773 772 771 770 768 766 764 763 762 761
797 798 798 799 800 801 801 802 803 804 805 806 806 807 807 807 808 808 808 808 809 809 809 809 808 808 808 808 808 807 807 806 806 805 804 804 803 802 801 800 799 798 797 796 795 794 793 791 790 789 788 786 784 781 779 777 775 773 772 772 771 770 769 767 765 763 762 761 759
794 795 796 797 798 799 800 801 802 803 803 804 804 805 805 805 806 806 806 806 807 807 807 807 807 807 806 806 806 805 805 804 804 804 803 802 801 800 799 799 797 796 795 794 793 792 791 789 788 787 785 784 781 779 777 775 773 771 771 771 770 769 767 766 764 763 761 760 759
792 793 794 795 796 797 799 799 800 801 801 802 803 803 804 804 804 804 804 805 805 805 805 805 805 805 805 804 804 804 803 803 802 802 801 800 799 799 798 797 796 795 794 792 791 790 789 787 786 785 784 782 779 777 775 773 771 771 771 770 769 768 766 764 763 761 760 759 758
790 791 793 794 795 796 797 798 798 799 799 800 800 801 802 802 802 803 803 803 803 803 803 803 803 803 803 803 803 802 802 801 800 800 799 799 798 797 796 795 794 793 792 791 790 789 788 787 785 784 782 780 778 776 774 773 772 772 771 770 768 767 765 763 762 760 759 758 756
788 789 790 792 793 794 794 795 796 796 797 798 798 799 800 800 801 801 801 801 801 801 801 801 802 802 801 801 801 801 800 799 799 798 797 797 796 795 794 794 792 791 790 789 788 788 787 786 785 784 782 779 777 775 774 773 772 771 770 768 767 765 764 762 760 759 758 757 755
786 787 788 789 790 791 792 793 794 794 795 796 797 797 798 798 799 799 799 799 799 799 800 800 800 800 800 799 799 799 799 798 798 797 796 795 794 793 793 792 791 789 789 788 787 786 786 785 784 782 780 778 776 774 772 772 771 769 768 767 766 764 763 761 759 758 757 755 754
784 785 786 787 788 789 790 790 791 792 793 794 794 795 796 796 797 797 797 797 797 798 798 798 798 798 798 798 798 797 797 797 796 795 794 794 793 792 791 790 789 788 787 786 785 785 784 783 782 781 779 777 774 773 771 770 769 768 767 766 764 763 762 760 759 757 756 754 753
781 782 784 785 786 787 787 788 789 790 791 791 792 793 794 795 795 795 795 795 795 796 796 796 796 796 796 796 796 795 795 795 794 794 793 792 791 790 789 788 787 786 785 785 784 783 782 781 780 779 777 775 773 772 770 769 768 767 766 765 764 762 761 759 758 756 754 753 752
779 780 781 783 784 784 785 786 787 788 788 789 790 792 792 793 793 793 793 794 794 794 794 794 794 794 794 794 794 794 794 793 793 792 792 791 790 789 788 787 786 785 784 783 783 782 781 780 779 777 776 774 772 770 769 768 767 766 765 764 763 761 760 758 757 755 754 752 751
776 778 779 780 781 782 783 784 785 786 787 788 789 790 791 791 791 791 791 791 792 792 792 792 793 793 792 792 792 792 792 792 791 791 790 789 788 787 786 785 784 783 782 782 781 780 779 778 777 776 774 773 771 769 768 767 766 765 764 763 762 760 759 757 756 754 753 752 750
774 776 777 778 779 780 781 782 783 784 785 786 787 788 789 789 789 789 789 789 790 790 790 791 791 790 790 791 791 791 790 790 790 789 789 788 787 786 784 784 783 782 781 780 779 779 778 777 776 774 773 772 770 769 767 766 765 764 763 762 761 759 758 757 755 754 752 751 749
772 774 775 776 777 778 779 780 782 783 784 785 785 786 787 787 787 787 788 788 788 789 789 789 789 789 789 789 789 789 789 789 788 788 787 786 785 784 783 782 781 780 779 779 778 777 776 775 774 773 772 770 769 768 766 765 764 764 762 761 760 759 757 756 754 753 752 750 749
770 772 773 774 775 776 778 779 780 781 782 783 784 784 784 785 785 786 786 786 787 787 787 787 787 787 787 787 787 787 787 787 787 786 786 785 784 783 782 781 780 779 778 777 777 776 775 774 773 772 770 769 768 766 765 764 764 762 761 760 759 758 756 755 754 753 751 749 748
768 769 771 772 773 774 776 777 778 779 781 781 782 782 783 783 784 784 784 784 785 785 785 785 785 785 785 785 785 785 785 785 785 785 784 784 783 782 780 779 778 778 777 776 775 775 774 773 772 771 769 768 766 765 764 763 762 761 760 759 758 757 756 754 754 752 751 749 748
765 767 768 769 771 772 774 775 776 778 779 779 780 780 781 781 782 782 783 783 784 784 783 783 783 783 783 783 784 784 784 784 783 783 783 782 781 780 779 778 777 776 776 775 774 774 773 772 770 769 768 767 765 764 763 762 761 760 759 758 757 756 755 754 753 751 750 749 747
763 764 766 767 769 770 772 773 774 776 776 777 777 778 779 779 780 780 781 782 782 782 782 781 781 781 781 781 782 782 782 782 782 781 781 780 780 779 777 776 775 775 774 774 773 772 772 771 769 768 767 766 764 763 762 761 760 759 758 757 756 755 754 753 752 751 749 748 747
760 762 763 765 766 768 769 771 772 773 774 774 775 776 777 777 778 779 780 780 780 780 780 779 779 779 779 779 780 780 780 780 780 780 779 779 778 777 776 775 774 773 773 772 772 771 770 769 769 767 766 765 763 762 761 760 759 758 757 756 755 754 753 752 751 750 749 748 746
758 759 761 763 764 766 767 769 770 771 771 772 773 774 774 776 777 777 778 779 779 778 778 778 778 778 778 778 778 779 779 779 779 779 778 777 777 776 774 773 772 772 772 771 770 770 769 769 768 767 765 764 762 761 759 759 758 757 756 755 754 754 753 752 751 749 749 747 746
756 758 759 761 762 764 765 766 767 768 769 769 771 772 773 774 775 775 776 777 777 777 776 776 776 776 776 776 777 777 777 777 777 777 776 776 775 774 774 772 771 771 770 770 769 769 768 767 767 766 765 764 762 760 759 758 757 756 755 754 754 753 752 751 750 749 748 746 745
754 755 757 759 760 762 763 764 765 765 766 768 769 770 771 772 773 774 775 775 775 775 775 775 774 775 775 775 775 775 775 775 775 775 775 774 774 773 772 771 770 769 769 769 768 767 767 766 766 765 764 763 761 759 758 757 756 755 754 754 753 752 751 750 749 748 747 746 744
752 754 755 757 759 760 761 762 763 764 765 766 767 768 769 770 772 773 773 774 774 774 773 773 773 773 773 773 773 773 773 773 773 774 774 773 773 772 771 770 769 768 768 767 767 766 766 765 765 764 763 762 761 759 758 757 755 754 754 753 752 751 750 749 748 747 746 745 744
Wind_Speed
22 21 21 21 20 20 20 19 18 17 17 17 17 17 16 16 17 17 16 16 17 17 18 18 19 20 20 20 20 20 20 19 19 19 20 20 21 21 22 22 23 23 24 25 25 25 26 26 25 25 26 26 26 26 27 27 27 27 27 27 27 27 27 27 28 27 27 26 25
23 22 21 21 21 20 20 19 19 18 18 18 17 17 16 16 17 17 17 17 17 17 18 19 20 20 21 21 20 20 20 20 20 20 20 20 21 21 22 23 23 24 25 25 26 26 26 26 25 25 25 25 25 26 27 27 27 27 27 27 27 27 27 26 26 26 26 25 24
23 22 22 22 21 21 21 20 20 19 19 18 17 17 16 17 17 17 17 17 17 18 19 19 20 20 21 21 20 20 20 19 20 20 20 21 21 22 23 23 24 25 25 26 26 26 26 25 25 25 25 25 26 27 28 28 28 27 27 28 27 27 26 25 26 26 25 24 23
24 23 23 23 22 22 22 21 20 19 18 18 17 17 17 17 17 17 18 18 18 19 19 19 20 20 20 20 20 19 19 19 19 20 21 22 22 23 24 24 25 26 26 26 26 26 25 25 25 25 26 26 27 28 28 28 28 28 28 28 28 27 26 25 25 24 23 22 23
25 24 24 23 23 22 21 20 20 19 18 17 17 17 17 17 17 17 18 18 19 19 19 19 19 19 19 19 19 19 19 19 19 20 21 22 23 24 24 25 25 25 26 25 25 25 25 25 25 25 26 26 27 27 28 28 28 28 28 29 28 27 26 25 25 24 23 23 24
25 25 24 23 22 22 21 20 20 19 19 18 18 18 18 18 18 18 18 19 19 18 18 18 18 19 19 19 19 19 19 19 20 21 22 23 23 24 24 24 24 24 25 25 25 25 25 25 25 25 25 25 26 26 27 27 27 28 29 29 29 28 27 26 26 25 24 24 25
25 24 24 23 22 22 21 21 20 20 19 19 19 19 18 18 18 18 18 18 18 18 17 17 18 18 18 18 18 19 19 20 20 21 22 23 23 23 23 23 24 24 24 24 24 24 24 24 24 25 24 24 24 25 26 27 27 29 30 30 30 29 28 27 27 26 26 26 27
25 24 24 23 22 22 21 21 21 21 20 20 20 19 19 18 18 18 18 18 18 17 17 17 17 18 18 18 18 19 19 20 21 21 22 22 22 22 23 23 23 24 24 24 24 24 24 23 24 24 24 24 24 25 27 28 29 30 31 32 32 31 30 29 28 28 27 28 28
26 25 24 23 23 22 22 22 21 21 21 21 20 19 19 18 18 18 18 18 17 17 16 17 17 17 17 18 18 19 20 20 21 21 21 21 21 22 22 23 23 24 24 24 23 23 23 23 23 24 24 25 25 27 28 29 30 31 32 32 32 31 31 30 30 29 29 28 28
27 26 25 24 23 22 22 22 22 22 22 21 21 20 19 19 18 18 18 17 16 16 17 17 17 17 17 18 18 19 19 20 20 20 20 20 21 21 22 23 23 24 24 23 23 23 23 23 24 24 25 26 27 29 30 30 31 31 32 31 31 32 33 33 33 31 29 28 28
27 26 25 24 23 22 22 22 23 23 22 22 21 20 20 19 19 18 17 16 16 17 17 17 17 17 17 18 18 18 18 19 19 19 20 20 21 21 22 22 23 23 23 23 23 22 23 23 24 25 26 26 27 29 30 30 31 31 32 32 33 33 34 35 34 32 29 28 27
27 26 25 24 23 23 23 23 24 23 23 23 22 21 20 19 18 17 16 16 17 17 17 16 16 17 17 18 18 18 17 17 18 18 19 20 20 21 21 22 22 22 23 22 22 22 23 23 24 25 26 27 27 28 29 30 30 31 32 33 34 34 35 35 35 33 30 28 27
27 26 25 24 23 23 24 24 24 24 24 23 22 21 20 19 17 16 16 16 17 17 17 16 16 17 17 17 17 17 17 17 17 18 19 20 20 21 21 21 22 22 22 22 22 22 23 24 24 25 26 27 28 28 29 30 31 32 33 34 34 35 35 36 35 33 31 29 28
27 26 26 25 24 24 25 25 25 25 25 24 23 22 20 18 17 16 16 17 17 17 16 16 16 16 16 16 16 16 16 16 17 18 19 20 20 20 21 21 21 22 22 22 22 22 23 24 25 26 27 28 29 30 30 31 31 32 33 34 34 35 36 36 36 34 32 30 30
28 27 26 25 25 25 26 26 26 26 25 24 23 21 20 18 17 16 16 17 17 17 16 16 16 16 15 15 15 15 16 16 17 18 19 20 20 20 21 21 21 22 22 22 23 23 24 24 25 26 27 29 30 30 31 31 32 32 33 34 35 35 36 37 36 35 33 32 31
29 28 27 27 27 27 27 27 27 26 26 25 23 21 20 19 17 17 16 17 17 16 16 17 16 16 15 14 14 15 15 16 17 18 19 20 20 20 21 21 22 22 22 23 24 24 25 25 26 27 28 29 30 31 31 32 32 33 34 34 35 36 36 37 37 36 35 33 31
30 29 28 28 28 28 28 28 28 27 26 25 23 22 20 19 17 17 17 17 17 17 17 17 16 16 15 14 14 14 15 16 17 18 19 20 20 21 21 21 22 22 23 24 25 26 26 26 27 27 28 29 30 31 31 32 32 33 34 35 36 37 37 38 38 38 36 34 31
31 30 30 29 29 29 29 29 28 27 26 25 23 22 20 19 18 17 17 17 16 17 17 16 16 15 15 15 14 14 15 16 17 18 19 20 20 21 21 22 22 23 23 24 25 26 27 28 28 28 28 29 29 30 31 32 33 34 35 37 38 38 39 40 40 39 36 33 32
32 31 31 31 31 30 30 29 28 27 26 25 23 22 20 19 18 18 17 17 16 16 16 16 16 15 15 15 14 14 15 16 17 18 19 19 20 20 21 22 22 23 24 25 26 27 27 28 28 28 28 28 29 29 31 32 34 36 37 38 39 39 39 40 40 39 36 34 32
33 33 32 32 31 31 30 29 28 27 25 24 23 22 21 20 19 18 18 17 16 16 16 16 16 16 15 15 14 15 15 16 17 18 19 19 20 20 21 22 23 23 24 25 26 27 28 28 28 27 27 27 28 30 32 33 35 37 38 39 38 37 36 36 35 35 34 33 32
34 34 33 32 31 30 29 28 27 26 25 24 23 23 21 20 19 19 18 17 16 16 16 16 16 16 15 14 15 15 15 16 17 18 19 19 20 20 21 22 23 24 25 26 27 27 28 27 27 26 26 27 29 31 33 35 37 38 38 37 34 32 30 28 28 28 29 29 29
35 34 33 32 31 30 28 27 26 25 25 24 24 23 22 21 20 19 17 16 16 16 16 17 16 16 15 15 15 15 16 17 18 18 19 19 20 20 20 21 23 24 25 26 27 27 27 26 26 25 26 28 30 32 34 36 37 37 34 30 26 24 23 22 22 22 23 23 24
35 34 33 31 30 29 28 27 26 26 25 25 25 24 23 21 20 18 17 17 17 17 17 17 16 15 15 14 15 16 17 17 18 18 19 19 19 20 20 21 23 24 25 26 27 27 26 25 25 25 27 29 31 33 34 35 34 30 25 21 19 19 19 19 19 19 19 20 21
35 34 32 31 30 29 28 27 27 27 26 26 25 24 23 22 20 18 18 17 17 17 17 17 16 15 15 15 15 16 17 18 19 19 18 18 19 19 20 21 23 24 25 26 26 25 23 23 23 25 27 28 30 31 31 30 26 21 17 16 17 18 19 19 19 19 19 19 20
35 34 32 31 30 29 28 28 28 28 27 27 26 25 23 22 20 19 18 18 18 18 17 17 16 15 15 15 15 16 17 18 19 19 19 19 19 19 20 22 23 24 25 26 25 22 21 21 22 24 26 28 29 30 30 26 21 17 16 16 17 19 20 20 20 19 19 20 20
36 34 33 32 30 30 29 29 29 29 28 27 26 25 24 22 21 20 19 19 19 18 17 17 16 15 15 15 15 16 16 17 18 18 19 19 20 20 21 22 23 24 25 25 23 22 21 22 23 24 25 27 30 30 26 21 17 15 15 15 17 18 20 20 20 20 20 20 20
36 35 34 32 31 30 30 30 29 29 28 27 26 26 24 23 21 20 20 19 19 18 18 17 16 15 15 15 15 16 16 17 17 17 18 19 20 20 21 22 22 23 24 24 23 22 22 23 23 24 25 27 29 27 22 18 16 14 14 15 16 18 19 20 20 20 19 19 18
37 36 34 33 32 31 31 30 30 30 29 28 27 26 24 23 22 21 20 20 19 19 18 17 16 15 15 15 16 16 16 16 16 17 17 18 19 20 21 21 22 23 24 23 22 22 22 23 23 24 25 26 25 23 19 16 14 13 13 14 16 17 18 19 19 19 18 18 17
37 36 35 34 33 32 31 31 31 30 30 28 27 26 24 23 22 22 21 20 20 19 19 17 16 15 15 15 15 16 16 16 16 17 17 18 19 19 20 21 22 23 23 23 22 22 22 22 23 23 25 26 24 21 17 14 13 12 12 13 15 16 18 18 18 17 17 16 15
38 36 35 34 33 32 32 32 31 31 30 28 27 26 25 24 23 23 22 21 20 20 18 17 15 15 15 15 15 16 16 16 16 16 17 18 19 19 20 21 22 23 23 23 22 22 21 22 22 23 25 26 23 18 15 13 11 11 11 12 14 16 17 18 17 16 15 14 13
38 36 35 34 33 33 32 32 31 31 30 28 27 26 26 25 24 23 23 22 20 19 18 16 16 16 16 15 15 16 16 16 16 16 16 17 18 19 20 21 22 22 23 22 21 21 21 21 22 23 24 25 21 16 13 11 10 10 10 11 14 16 17 17 16 15 13 12 11
38 36 35 34 33 33 33 32 31 31 30 29 28 27 26 26 25 24 23 21 20 19 18 17 16 16 15 15 15 15 16 15 15 15 16 17 18 19 20 21 21 22 22 21 20 20 20 21 22 23 24 23 19 15 12 11 9 8 9 11 13 16 17 16 15 14 13 11 11
37 36 35 34 34 33 33 32 32 31 30 29 28 28 27 26 25 24 23 22 20 19 18 17 16 16 15 15 15 15 15 15 15 15 16 17 18 19 20 20 21 21 21 20 20 20 20 20 21 22 24 23 18 14 11 10 8 7 8 10 13 16 17 15 14 13 12 11 10
37 36 35 35 34 33 32 32 32 31 31 30 29 28 28 27 26 25 23 22 21 19 18 18 17 16 15 15 15 15 15 15 15 15 16 17 18 19 20 20 20 20 20 19 19 19 20 20 21 22 23 22 17 12 10 8 7 7 8 10 13 16 17 15 13 11 11 10 10
38 37 36 35 34 33 32 32 32 31 30 30 30 29 28 28 27 26 24 22 20 19 19 18 17 16 15 15 15 15 15 15 15 15 16 17 18 19 19 20 20 19 19 18 18 19 19 19 20 22 23 21 16 11 9 7 6 6 7 10 13 15 16 16 13 11 9 9 9
38 37 36 36 34 33 32 32 31 31 31 31 31 30 29 28 27 26 24 22 20 20 19 18 17 16 16 15 15 14 14 14 15 16 16 17 18 19 19 19 19 19 18 17 17 18 18 19 20 21 22 20 14 10 8 7 6 6 8 10 13 14 15 15 14 12 10 8 8
39 38 37 36 34 33 33 32 31 31 31 32 31 31 30 29 28 26 24 22 21 20 20 19 18 16 16 15 14 13 13 13 15 16 17 17 18 18 19 19 19 18 17 16 16 17 18 18 19 20 21 19 14 10 8 7 6 7 9 10 12 14 14 14 14 13 11 10 10
39 38 37 36 35 34 33 32 32 32 33 33 32 31 30 29 28 26 24 22 22 21 20 19 18 17 15 14 13 13 13 13 14 16 17 17 17 18 18 19 19 18 16 16 16 16 17 17 18 19 20 19 15 11 10 9 8 9 10 11 12 13 13 13 14 14 14 13 12
40 39 37 36 35 34 33 32 33 33 33 32 31 31 30 29 28 27 24 23 22 21 20 19 18 16 14 13 13 13 13 14 14 15 17 17 17 17 17 18 18 17 16 15 15 15 15 16 16 17 18 18 16 14 13 11 11 10 11 11 12 12 12 12 13 14 15 15 14
40 39 38 36 35 34 33 33 33 33 33 32 31 31 30 30 28 26 24 23 22 21 20 19 17 16 14 13 13 13 14 14 15 15 16 16 17 16 16 17 17 16 15 14 13 14 14 15 15 15 16 17 17 17 16 14 13 12 11 11 11 11 12 12 13 15 16 16 15
39 38 37 36 36 35 34 34 34 33 32 31 31 30 30 29 27 26 24 23 22 21 19 18 17 15 14 13 13 14 15 15 15 15 15 16 16 16 16 16 15 14 13 13 12 13 13 14 14 14 15 16 17 17 17 16 13 12 11 11 11 11 11 12 14 16 17 17 16
Wind_Direction
237 238 239 240 242 244 246 249 251 254 256 257 258 259 259 260 263 265 267 269 271 274 278 281 284 286 288 290 293 294 295 295 296 297 299 300 302 303 303 303 303 303 303 303 304 304 304 304 305 304 303 303 302 302 301 300 299 299 299 299 300 300 301 300 299 299 299 298 297
237 238 239 241 242 244 246 248 250 251 253 255 257 258 259 260 263 266 268 270 272 275 279 281 283 285 288 290 292 294 295 296 297 298 300 301 302 303 303 303 303 303 303 304 304 304 304 304 304 303 302 301 300 300 299 299 300 299 298 299 300 300 299 298 297 297 298 297 297
237 238 240 240 241 243 244 246 248 250 252 254 257 258 260 261 264 267 270 272 274 276 278 280 282 285 288 291 293 294 295 296 298 300 302 302 303 303 303 303 303 303 304 304 304 304 304 304 303 302 300 299 298 298 298 299 300 299 298 298 298 298 296 295 295 295 296 295 295
237 238 239 240 240 241 243 246 248 251 253 255 257 258 259 261 264 267 270 273 274 275 277 280 283 286 289 291 293 294 296 298 300 302 302 303 303 303 303 304 304 304 305 305 305 305 304 304 303 301 299 298 298 298 298 299 300 299 297 297 296 295 294 292 292 293 293 292 292
235 237 239 239 240 242 245 248 250 252 254 255 256 257 258 260 263 265 268 270 272 274 277 281 284 287 289 291 293 295 297 299 301 301 301 302 302 303 303 304 305 306 306 307 306 306 305 304 303 301 299 298 297 297 297 298 299 298 296 295 295 293 292 290 290 290 290 290 290
234 236 238 240 241 243 244 247 249 251 253 253 254 255 256 258 261 263 265 268 271 275 278 281 284 286 289 291 293 295 297 298 299 300 300 301 302 303 304 306 307 308 309 309 308 307 307 305 303 301 299 297 296 295 296 297 296 296 295 294 293 292 291 289 289 289 288 288 289
235 237 239 240 241 242 244 245 247 249 250 251 252 253 255 258 261 263 266 269 271 274 276 279 283 285 288 290 292 294 296 297 298 299 300 301 303 305 307 309 310 311 311 311 310 309 308 306 303 300 298 296 294 293 294 294 294 294 293 293 293 292 290 289 289 288 288 287 288
236 238 239 240 241 242 243 244 246 247 248 249 251 253 256 259 262 264 265 267 269 272 276 279 282 284 286 288 290 293 294 296 298 299 301 303 305 308 310 312 313 313 313 312 311 310 309 306 302 298 296 294 291 291 293 294 294 294 293 293 293 292 291 290 289 288 287 287 287
235 237 238 239 240 241 243 244 245 246 247 249 251 254 257 259 261 262 263 264 267 272 276 278 280 282 285 287 289 292 294 296 298 300 303 305 308 311 313 314 314 314 314 313 312 311 309 306 301 297 295 293 292 292 294 295 295 294 293 293 292 292 292 291 290 288 287 286 285
233 234 235 237 238 239 241 243 244 245 247 249 251 253 255 257 258 259 260 264 269 272 274 276 279 281 284 286 289 291 293 295 298 301 305 308 311 313 314 315 316 315 315 314 314 312 309 305 301 298 296 295 294 294 295 296 295 294 293 292 291 292 292 292 291 288 286 284 283
233 234 235 236 237 239 240 242 243 244 246 248 250 251 252 253 254 257 260 264 268 270 272 275 278 281 283 285 288 290 293 296 300 303 307 310 312 314 316 317 317 316 316 316 315 313 309 305 302 300 299 298 297 296 296 296 296 295 294 293 292 292 292 292 292 290 286 284 283
233 234 235 236 238 239 240 241 242 243 245 246 248 249 250 251 252 255 259 262 265 268 271 274 277 280 282 285 287 290 294 298 301 305 308 311 313 315 317 317 318 317 317 317 316 313 310 307 304 303 302 301 300 298 297 297 296 295 294 294 293 292 291 291 291 290 288 286 284
233 234 235 237 237 239 240 241 242 243 244 245 246 247 248 249 251 254 257 260 263 266 270 274 276 279 281 284 287 290 295 299 303 306 308 311 314 316 317 318 318 318 317 317 316 314 311 309 307 305 303 303 302 300 299 298 296 295 293 293 293 292 290 291 291 290 289 286 283
233 234 235 236 237 238 239 240 241 242 243 244 245 246 247 248 250 252 255 259 262 266 270 274 275 277 279 282 286 290 295 300 304 306 309 311 314 316 317 317 318 318 318 317 316 315 312 310 308 307 305 304 303 303 302 299 297 294 293 291 291 290 290 291 291 290 288 285 282
233 234 235 236 236 237 238 239 240 241 242 243 244 245 246 247 249 250 254 258 262 266 270 273 274 275 277 280 285 290 296 300 304 306 309 311 313 315 316 317 318 318 317 317 316 315 313 312 310 308 306 305 304 303 303 301 298 296 293 291 290 290 290 291 291 290 287 283 281
232 233 234 235 235 236 237 238 239 240 241 242 243 244 245 246 247 249 253 257 262 265 269 271 272 274 276 279 284 290 296 300 303 306 308 310 313 315 316 317 317 317 317 317 316 315 314 313 312 310 308 306 305 304 302 301 299 297 295 294 292 291 291 291 290 288 285 282 279
231 232 233 234 235 235 236 237 238 239 240 242 242 243 243 245 246 248 251 256 260 264 267 268 270 273 276 279 284 290 296 300 303 305 308 310 312 314 315 316 317 317 317 317 316 315 315 315 314 312 310 307 305 304 303 301 300 298 297 297 296 294 294 293 291 288 285 282 278
230 231 232 233 234 235 236 236 237 239 240 241 242 242 243 244 245 248 251 254 258 262 265 266 268 271 275 279 285 290 295 299 302 305 308 310 312 314 315 316 317 318 318 317 316 315 315 315 314 313 311 308 306 304 303 302 301 300 299 299 298 297 296 296 294 291 286 282 279
229 231 232 232 233 234 235 236 237 238 239 241 241 242 242 243 245 247 250 253 255 259 262 265 267 269 273 279 285 291 295 299 303 305 307 310 311 313 315 316 318 318 318 317 316 316 316 315 314 313 312 309 307 306 305 303 302 301 300 300 298 298 298 298 297 294 290 285 282
229 230 231 232 233 233 234 235 236 238 239 240 241 241 242 242 244 246 249 251 253 256 259 262 265 268 273 279 285 291 296 299 303 305 307 309 311 313 315 317 318 318 318 317 317 316 316 315 315 314 312 310 308 307 306 305 303 302 301 299 299 299 301 303 303 300 296 291 286
229 230 231 232 232 233 234 235 237 238 239 240 240 240 241 242 243 245 248 251 253 254 256 259 262 267 273 280 287 293 297 300 302 304 306 308 311 313 316 317 318 318 318 317 317 317 317 316 315 315 313 311 309 307 306 304 303 301 300 299 301 305 309 311 311 308 304 299 292
230 231 231 232 233 234 235 236 237 238 239 239 239 240 240 241 243 245 247 249 251 252 253 256 260 266 273 281 288 294 297 299 301 303 305 307 310 313 316 318 318 317 318 318 318 318 317 317 316 316 314 311 309 307 305 303 300 299 299 303 309 315 320 322 321 319 315 309 301
230 231 231 232 233 234 235 236 237 238 238 238 238 239 240 241 242 244 246 248 248 250 252 255 260 265 273 281 288 293 296 299 300 302 304 307 310 314 316 318 317 317 317 318 318 318 317 316 315 314 312 308 306 304 302 300 299 300 306 316 324 328 329 330 329 328 325 320 311
229 230 231 232 233 234 235 236 236 236 236 236 237 238 239 241 242 243 244 245 246 248 250 254 259 266 273 279 285 290 294 297 299 302 305 308 312 314 316 317 317 317 318 318 318 316 313 311 308 307 305 303 302 300 300 300 305 313 326 334 335 334 334 333 333 331 328 324 317
229 230 230 231 232 233 234 235 235 235 235 235 236 237 239 240 242 242 243 244 245 247 250 254 259 265 271 277 283 287 291 294 298 302 305 309 312 315 316 317 317 317 318 319 317 312 307 304 302 302 302 302 301 300 301 307 318 330 337 338 338 336 335 333 331 329 326 323 319
228 229 230 231 232 233 233 234 233 234 234 234 235 237 238 239 240 242 243 244 245 246 249 253 258 263 269 276 281 286 289 293 297 302 306 309 312 314 316 316 317 318 319 319 315 310 306 304 303 303 303 303 303 304 310 321 332 338 339 340 340 338 335 332 329 327 325 323 320
227 228 229 230 231 232 233 233 233 233 233 234 235 236 237 239 240 241 242 244 245 246 249 252 256 262 268 275 280 284 288 292 297 302 305 308 311 313 315 316 317 319 319 318 313 309 307 307 306 306 306 305 306 311 320 332 336 337 339 341 341 339 335 332 329 327 325 323 321
226 228 229 230 231 232 232 232 232 232 233 233 234 235 237 238 240 241 242 243 245 247 249 252 256 261 268 273 278 283 288 293 297 301 305 307 310 312 314 316 317 319 319 315 311 308 308 308 308 308 308 308 311 319 329 334 334 334 338 341 341 339 337 334 333 331 328 326 324
226 227 228 229 230 231 232 232 232 232 232 232 234 235 236 238 239 240 241 243 244 246 249 252 257 262 267 272 277 283 288 293 297 301 305 307 309 311 314 316 317 319 318 314 311 309 309 309 310 309 310 311 316 325 333 334 331 332 337 341 342 340 338 337 336 335 332 329 327
225 226 227 228 229 230 231 231 231 231 231 232 233 234 236 237 238 239 240 242 243 246 249 253 258 262 266 272 278 284 288 292 296 301 304 307 309 311 314 316 318 319 319 317 314 311 310 311 311 311 312 315 320 329 335 333 329 330 335 340 342 342 340 339 338 337 335 331 330
224 225 226 227 228 229 230 231 231 231 231 232 233 234 235 236 237 238 239 241 243 246 249 253 256 261 265 271 277 283 287 291 296 300 304 307 309 312 314 316 317 319 319 318 314 312 311 312 312 313 314 318 324 332 338 334 329 329 333 338 343 344 343 340 338 338 338 338 338
223 224 225 226 227 229 230 231 231 231 231 232 232 233 235 236 237 238 239 241 244 246 248 250 254 259 265 271 276 281 286 291 296 300 304 307 310 312 314 316 317 318 319 317 313 312 312 313 313 314 316 320 326 334 340 336 329 326 331 337 344 348 347 343 339 337 339 342 345
222 223 224 225 227 229 230 231 231 231 231 232 232 233 235 236 237 238 239 241 243 245 247 249 253 258 264 270 276 281 286 291 296 300 304 307 310 311 313 314 316 318 319 317 313 312 313 313 314 315 317 320 325 335 343 338 327 322 328 338 346 351 351 346 340 336 336 341 345
221 222 223 224 226 228 229 230 230 231 231 231 232 233 234 235 236 237 238 239 241 244 246 249 253 258 264 270 276 281 286 291 295 300 304 307 309 311 311 313 315 317 318 316 313 312 313 314 314 316 318 320 325 335 343 336 322 316 327 340 348 352 353 350 342 335 332 334 339
220 220 221 223 225 226 227 228 229 230 230 231 232 232 233 234 235 236 237 238 240 243 246 249 253 257 262 267 272 278 284 290 295 300 304 307 309 310 311 312 314 316 317 316 314 313 314 315 315 317 319 321 326 336 344 335 318 315 330 344 350 353 355 354 349 339 330 327 332
219 219 220 222 223 224 225 226 227 228 228 230 231 232 232 233 234 236 237 238 240 242 245 248 251 255 259 264 269 275 282 289 295 300 303 306 308 309 310 312 314 315 316 317 315 314 315 316 317 318 321 324 329 341 349 341 325 323 335 346 352 353 355 356 354 348 338 331 333
219 219 219 220 221 222 223 224 225 226 227 229 230 230 231 232 233 235 236 237 238 240 243 246 249 252 256 261 268 274 281 288 294 299 302 305 307 309 310 311 312 314 316 318 317 315 315 316 318 320 323 326 335 350 358 351 337 332 338 346 351 353 354 357 357 355 350 344 342
219 219 219 219 220 220 222 222 223 224 226 228 229 229 230 232 233 234 235 235 237 239 243 246 248 251 255 261 268 274 281 287 293 297 300 304 306 308 309 309 311 313 315 316 316 315 315 317 318 321 324 327 337 353 3 358 345 337 337 343 349 353 354 355 355 355 354 353 347
219 219 219 219 219 220 220 221 222 224 226 227 228 229 230 231 233 234 235 235 237 239 243 246 248 251 255 261 269 275 280 285 291 295 299 302 305 306 307 308 309 310 312 312 312 313 315 317 318 321 323 326 335 349 360 359 349 339 335 338 345 350 353 353 352 352 353 353 350
218 219 219 219 219 220 220 221 223 224 225 226 227 228 230 231 233 234 235 235 237 240 243 246 248 252 255 261 268 275 281 285 289 293 297 300 302 303 304 305 306 307 308 308 309 312 315 316 318 319 321 324 331 342 352 353 348 339 333 333 340 346 350 351 350 350 351 351 351
218 218 218 219 220 220 221 222 224 225 226 226 227 228 230 232 233 235 235 235 237 239 242 245 248 252 255 260 266 273 279 284 288 292 296 298 299 301 302 303 303 303 304 306 308 312 314 315 316 317 318 321 327 336 343 344 342 336 330 330 333 340 346 348 350 350 350 349 349